Miscellaneous Local Product
Issued by NWS Hastings, NE

Home | Current Version | Previous Version | Graphics & Text | Print | Product List | Glossary On
Versions: 1 2 3 4 5 6 7 8 9 10 11 12 13 14 15 16 17 18 19 20 21 22 23 24 25 26 27 28 29 30 31 32 33 34 35 36 37 38 39 40 41 42 43 44 45 46 47 48 49 50
639
AXUS43 KGID 040902
MISGRI

GID CWA HOURLY WEATHER ROUNDUP
NATIONAL WEATHER SERVICE HASTINGS NE
300 AM CST THU FEB 04 2016

NOTE: "FAIR" INDICATES FEW OR NO CLOUDS BELOW 12,000 FEET WITH NO
SIGNIFICANT WEATHER AND/OR OBSTRUCTIONS TO VISIBILITY.

...SOUTH CENTRAL NEBRASKA...

CITY           SKY/WX    TMP DP  RH WIND       PRES   REMARKS
GRAND ISLAND   CLEAR     13   8  81 W12       30.18R WCI  -1
HASTINGS       CLEAR     15   8  73 W12       30.18S WCI   2
ORD            CLEAR      9   5  84 CALM      30.14F
YORK           CLEAR     10   9  92 W10       30.18S WCI  -3
AURORA         CLEAR      8   6  90 W10       30.17S WCI  -6
LEXINGTON      CLEAR      7   3  83 NW8       30.19S WCI  -6
HOLDREGE       CLEAR     13   7  76 W9        30.19S WCI   1
HEBRON         CLEAR     15  12  88 SW8       30.22F WCI   3

...NEBRASKA PANHANDLE...

CITY           SKY/WX    TMP DP  RH WIND       PRES   REMARKS
CHADRON        MOCLDY    13   5  70 W7        30.12F WCI   3
ALLIANCE       CLOUDY    15   8  73 W15       30.09F WCI   0
SCOTTSBLUFF    PTCLDY    12   5  73 NW9       30.13F WCI   0
SIDNEY         CLOUDY     8  -1  66 W12       30.13F WCI  -7

...WESTERN AND NORTH CENTRAL NEBRASKA...

CITY           SKY/WX    TMP DP  RH WIND       PRES   REMARKS
VALENTINE      PTCLDY    15   9  76 SW8       30.09S WCI   4
AINSWORTH      CLEAR     17  10  74 W12       30.09S WCI   4
ONEILL         CLEAR     17  12  81 W8        30.10S WCI   6
BROKEN BOW     CLEAR     18   7  62 W14       30.13F WCI   4
IMPERIAL       CLOUDY    10  -1  61 W10       30.20S WCI  -4
NORTH PLATTE   CLOUDY     9   3  77 W9        30.17F WCI  -4
MCCOOK         CLEAR     10   3  73 W10       30.22S WCI  -4

...EASTERN NEBRASKA...

CITY           SKY/WX    TMP DP  RH WIND       PRES   REMARKS
NORFOLK        PTCLDY    21  14  74 W9        30.12S WCI  11
SO SIOUX CITY  MOCLDY    15  10  80 E7        30.15R WCI   5
TEKAMAH        CLOUDY    21  13  71 SW12      30.17S WCI   9
COLUMBUS       CLEAR     14   1  57 SW8       30.17R WCI   3
ALBION         CLEAR     15  10  80 CALM      30.13F
OMAHA EPPLEY   CLOUDY    18  13  80 SE10      30.19F WCI   6
MILLARD        CLOUDY    15  12  87 CALM      30.20F
LINCOLN        CLEAR     10   5  80 S7        30.21F WCI  -1
NEBRASKA CITY  CLEAR     16  11  82 W13       30.21S WCI   2
FALLS CITY     CLEAR     19  14  81 S3        30.25S

...NORTHERN KANSAS...

CITY           SKY/WX    TMP DP  RH WIND       PRES   REMARKS
GOODLAND       CLEAR     11  -2  56 W14       30.21S WCI  -5
HILL CITY      CLEAR     13   4  67 W7        30.26R WCI   3
NORTON         SUNNY     12   1  62 SW9       30.22S WCI   0
PHILLIPSBURG   CLEAR     16   9  73 CALM      30.26R
SMITH CENTER   CLEAR      7   5  92 CALM      30.25S
BELOIT         CLEAR     18  12  79 W8        30.26F WCI   7
HAYS           CLEAR     10  -2  56 W7        30.27S WCI   0
RUSSELL        CLEAR     11   7  84 SW10      30.26S WCI  -3
CONCORDIA      CLEAR     19  14  81 W10       30.25S WCI   7
SALINA         CLEAR     22  16  78 SW8       30.29F WCI  12
TOPEKA         CLEAR     19  15  84 CALM      30.30F



USA.gov is the U.S. government's official web portal to all federal, state and local government web resources and services.